This is the latest recevied weather packets stored in our database for station/object KN6KS. If no packets are shown the sender has not sent any weather packets the latest 10 day(s).
| Time | Temp. | Humidity | Pressure | Rain* | Wind** | Luminosity | Snow |
|---|---|---|---|---|---|---|---|
| 1777829576 | 15° C | 67% | 1011.2 hPa | 0 mm | - | 766 W/m² | - |
| 1777829273 | 15.56° C | 66% | 1010.9 hPa | 0 mm | - | 729 W/m² | - |
| 1777828970 | 15.56° C | 66% | 1011.2 hPa | 0 mm | - | 735 W/m² | - |
| 1777828667 | 15° C | 67% | 1010.9 hPa | 0 mm | - | 751 W/m² | - |
| 1777828364 | 15° C | 66% | 1010.6 hPa | 0 mm | - | 766 W/m² | - |
| 1777828061 | 15° C | 67% | 1010.5 hPa | 0 mm | - | 741 W/m² | - |
| 1777827757 | 15° C | 67% | 1010.7 hPa | 0 mm | - | 722 W/m² | - |
| 1777827454 | 15° C | 67% | 1010.6 hPa | 0 mm | - | 715 W/m² | - |
| 1777827152 | 15.56° C | 65% | 1010.6 hPa | 0 mm | - | 716 W/m² | - |
| 1777826847 | 15.56° C | 65% | 1010.5 hPa | 0 mm | - | 678 W/m² | - |
| 1777826546 | 15.56° C | 65% | 1010.4 hPa | 0 mm | - | 652 W/m² | - |
| 1777826241 | 15.56° C | 65% | 1010.6 hPa | 0 mm | - | 646 W/m² | - |
| 1777825940 | 15.56° C | 65% | 1010.4 hPa | 0 mm | - | 647 W/m² | - |
| 1777825636 | 15.56° C | 64% | 1010.5 hPa | 0 mm | - | 632 W/m² | - |
| 1777825334 | 15.56° C | 66% | 1010.4 hPa | 0 mm | - | 579 W/m² | - |
| 1777825031 | 16.11° C | 64% | 1010.5 hPa | 0 mm | - | 586 W/m² | - |
| 1777824727 | 15.56° C | 64% | 1010.5 hPa | 0 mm | - | 576 W/m² | - |
| 1777824424 | 16.11° C | 65% | 1010.7 hPa | 0 mm | - | 547 W/m² | - |
| 1777824119 | 15.56° C | 64% | 1010.6 hPa | 0 mm | - | 539 W/m² | - |
| 1777823816 | 16.11° C | 62% | 1010.5 hPa | 0 mm | - | 516 W/m² | - |
| 1777823514 | 16.67° C | 57% | 1010.4 hPa | 0 mm | - | 486 W/m² | - |
| 1777823210 | 17.22° C | 54% | 1010.6 hPa | 0 mm | - | 432 W/m² | - |
| 1777822908 | 17.78° C | 52% | 1010.9 hPa | 0 mm | - | 395 W/m² | - |
| 1777822606 | 17.22° C | 52% | 1010.4 hPa | 0 mm | - | 391 W/m² | - |
| 1777822303 | 17.78° C | 53% | 1010.7 hPa | 0 mm | - | 357 W/m² | - |
* Rain latest hour (hover to see other rain measurements)
** Current wind speed in m/s (hover to see current wind gust speed)